Kirksville, MO

1:37 AM CDT on April 30, 2017 (GMT -0500)
Kirksville Regional

Weather History for KIRK - February, 2014

Change the Weather History Date:

Tuesday, February 18, 2014

  Actual Average Record
Temperature  
Mean Temperature 45 °F 30 °F  
Max Temperature 56 °F 40 °F 71 °F (2017)
Min Temperature 34 °F 21 °F -14 °F (1936)
Degree Days  
Heating Degree Days 20 35  
Month to date heating degree days 908 659  
Since 1 July heating degree days 4594 4206  
Cooling Degree Days 0 0  
Month to date cooling degree days 0 0  
Year to date cooling degree days 0 0  
Moisture  
Dew Point 28 °F    
Average Humidity 51    
Maximum Humidity 64    
Minimum Humidity 38    
Precipitation  
Precipitation 0.00 in 0.05 in 1.07 in (1926)
Month to date precipitation 1.15 0.97  
Year to date precipitation 2.01 2.24  
Sea Level Pressure  
Sea Level Pressure 29.82 in    
Wind  
Wind Speed 13 mph (SW)    
Max Wind Speed 25 mph    
Max Gust Speed 36 mph    
Visibility 10 miles    
Events      
T = Trace of Precipitation, MM = Missing Value Source: NWS Daily Summary

Daily Weather History Graph

Daily Weather History Graph

Search for Another Location

Airport or City:

Trip Planner

Search our weather history database for the weather conditions in past years. The results will help you decide how hot, cold, wet, or windy it might be!

Date:

Astronomy

Feb. 18, 2014 Rise Set
Actual Time 6:59 AM CST 5:49 PM CST
Civil Twilight 6:31 AM CST 6:17 PM CST
Nautical Twilight 5:59 AM CST 6:48 PM CST
Astronomical Twilight 5:28 AM CST 7:20 PM CST
Moon 9:43 PM CST (2/18) 8:31 AM CST (2/18)
Length of Visible Light 11h 45m
Length of Day
10h 50m
Waning Gibbous, 87% of the Moon is Illuminated
Feb 18
Waning Gibbous
Feb 22
Last Quarter
Mar 1
New
Mar 8
First Quarter
Mar 16
Full

Hourly Weather History & Observations

Time (CST) Temp. Windchill Dew Point Humidity Pressure Visibility Wind Dir Wind Speed Gust Speed Precip Events Conditions
12:55 AM 37.0 °F 31.0 °F 25.0 °F 62% 29.98 in 10.0 mi SW 8.1 mph - N/A   Clear
1:55 AM 37.9 °F 32.1 °F 24.1 °F 57% 29.97 in 10.0 mi SW 8.1 mph - N/A   Clear
2:55 AM 37.9 °F 32.1 °F 24.1 °F 57% 29.95 in 10.0 mi SSW 8.1 mph - N/A   Clear
3:55 AM 39.0 °F 31.4 °F 24.1 °F 55% 29.92 in 10.0 mi SSW 12.7 mph - N/A   Clear
4:55 AM 39.0 °F 31.8 °F 23.0 °F 53% 29.91 in 10.0 mi SSW 11.5 mph - N/A   Clear
5:55 AM 39.9 °F 32.1 °F 24.1 °F 53% 29.88 in 10.0 mi SSW 13.8 mph - N/A   Clear
6:55 AM 39.0 °F 31.4 °F 24.1 °F 55% 29.87 in 10.0 mi SSW 12.7 mph - N/A   Clear
7:55 AM 42.1 °F 34.5 °F 25.0 °F 51% 29.86 in 10.0 mi SSW 15.0 mph - N/A   Clear
8:55 AM 45.0 °F 37.6 °F 26.1 °F 48% 29.84 in 10.0 mi SSW 17.3 mph 25.3 mph N/A   Clear
9:55 AM 46.9 °F - 26.1 °F 44% 29.82 in 10.0 mi SSW 15.0 mph 24.2 mph N/A   Clear
10:55 AM 46.9 °F - 27.0 °F 46% 29.78 in 10.0 mi SSW 15.0 mph 26.5 mph N/A   Clear
11:55 AM 50.0 °F - 26.1 °F 39% 29.75 in 10.0 mi SSW 19.6 mph 28.8 mph N/A   Clear
12:55 PM 52.0 °F - 26.1 °F 37% 29.73 in 10.0 mi SW 18.4 mph 29.9 mph N/A   Clear
1:55 PM 53.1 °F - 28.0 °F 38% 29.70 in 10.0 mi SW 19.6 mph 33.4 mph N/A   Clear
2:55 PM 53.1 °F - 30.0 °F 41% 29.69 in 10.0 mi SW 17.3 mph 26.5 mph N/A   Clear
3:55 PM 54.0 °F - 30.9 °F 41% 29.68 in 10.0 mi SW 13.8 mph 25.3 mph N/A   Clear
4:55 PM 55.0 °F - 30.9 °F 40% 29.70 in 10.0 mi SW 11.5 mph - N/A   Clear
5:55 PM 51.1 °F - 30.9 °F 46% 29.71 in 10.0 mi SSW 11.5 mph - N/A   Clear
6:55 PM 50.0 °F - 30.9 °F 48% 29.73 in 10.0 mi SW 9.2 mph - N/A   Clear
7:55 PM 48.9 °F - 32.0 °F 52% 29.76 in 10.0 mi WSW 8.1 mph - N/A   Clear
8:55 PM 48.0 °F - 32.0 °F 54% 29.80 in 10.0 mi WNW 17.3 mph 25.3 mph N/A   Clear
9:55 PM 46.0 °F 39.6 °F 30.0 °F 54% 29.83 in 10.0 mi NNW 15.0 mph 23.0 mph N/A   Clear
10:55 PM 43.0 °F 36.8 °F 30.0 °F 60% 29.87 in 10.0 mi NW 11.5 mph - N/A   Clear
11:55 PM 41.0 °F 35.2 °F 30.9 °F 67% 29.88 in 10.0 mi WNW 9.2 mph - N/A   Clear